DW0713 Weather Reports


time (UTC)temp
C
wind
direction
speed
KPH
gust
KPH
rain 1hr
cm
rain 24hr
cm
rain mn
cm
humidity
%
barometer
mb
20260906214823 34 101 9.7 29.0 0.00 0.00 0.00 26 1011.4
20260906214328 34 135 20.9 32.2 0.00 0.00 0.00 25 1011.6
20260906213829 33 157 17.7 32.2 0.00 0.00 0.00 26 1011.6
20260906213335 33 138 11.3 37.0 0.00 0.00 0.00 26 1011.8
20260906212831 34 142 22.5 37.0 0.00 0.00 0.00 25 1011.6
20260906212320 34 175 17.7 30.6 0.00 0.00 0.00 25 1011.8
20260906211823 33 212 9.7 29.0 0.00 0.00 0.00 26 1011.8
20260906211328 33 194 17.7 29.0 0.00 0.00 0.00 26 1011.9
20260906210830 33 121 12.9 29.0 0.00 0.00 0.00 25 1011.9
20260906210356 33 113 9.7 24.1 0.00 0.00 0.00 25 1012.0
20260906205830 33 194 12.9 29.0 0.00 0.00 0.00 25 1012.1
20260906205335 33 182 17.7 33.8 0.00 0.00 0.00 25 1012.1
20260906204820 33 164 24.1 33.8 0.00 0.00 0.00 24 1012.3
20260906204322 33 134 12.9 25.7 0.00 0.00 0.00 26 1012.3
20260906203828 33 164 11.3 25.7 0.00 0.00 0.00 26 1012.5
20260906203335 33 198 17.7 24.1 0.00 0.00 0.00 26 1012.4
20260906202851 33 117 6.4 20.9 0.00 0.00 0.00 29 1012.4
20260906202336 33 185 8.0 22.5 0.00 0.00 0.00 28 1012.6
20260906201825 33 214 16.1 22.5 0.00 0.00 0.00 28 1012.6
20260906201327 32 221 11.3 20.9 0.00 0.00 0.00 29 1012.7
20260906200829 32 147 9.7 22.5 0.00 0.00 0.00 32 1012.9
20260906200332 32 190 9.7 30.6 0.00 0.00 0.00 31 1012.7
20260906195830 33 132 20.9 30.6 0.00 0.00 0.00 31 1012.9
20260906195333 33 191 14.5 30.6 0.00 0.00 0.00 30 1012.9
20260906194817 33 175 12.9 17.7 0.00 0.00 0.00 31 1013.1
20260906194323 32 187 9.7 22.5 0.00 0.00 0.00 31 1013.0
20260906193826 32 174 14.5 33.8 0.00 0.00 0.00 31 1013.4
20260906193333 32 141 16.1 33.8 0.00 0.00 0.00 31 1013.4
20260906192827 32 196 8.0 24.1 0.00 0.00 0.00 31 1013.5
20260906192328 32 161 16.1 24.1 0.00 0.00 0.00 33 1013.5
20260906191835 32 176 14.5 25.7 0.00 0.00 0.00 33 1013.5
20260906191321 32 203 19.3 25.7 0.00 0.00 0.00 33 1013.7
20260906190823 31 185 8.0 20.9 0.00 0.00 0.00 33 1013.8
20260906190326 31 144 9.7 24.1 0.00 0.00 0.00 33 1013.8
20260906185820 31 173 16.1 24.1 0.00 0.00 0.00 32 1013.9
20260906185322 31 194 16.1 22.5 0.00 0.00 0.00 33 1014.0
20260906184849 31 148 6.4 25.7 0.00 0.00 0.00 33 1014.0
20260906184331 31 184 17.7 25.7 0.00 0.00 0.00 34 1014.2
20260906183854 31 182 8.0 29.0 0.00 0.00 0.00 35 1014.2
20260906183336 31 195 17.7 29.0 0.00 0.00 0.00 34 1014.3
20260906182832 30 193 12.9 20.9 0.00 0.00 0.00 34 1014.4
20260906182334 30 179 6.4 20.9 0.00 0.00 0.00 33 1014.5
20260906181836 30 184 14.5 24.1 0.00 0.00 0.00 36 1014.5
20260906181323 30 189 11.3 24.1 0.00 0.00 0.00 38 1014.7
20260906180826 30 129 16.1 25.7 0.00 0.00 0.00 38 1014.8
20260906180350 30 158 17.7 29.0 0.00 0.00 0.00 39 1014.9
20260906175845 30 145 20.9 29.0 0.00 0.00 0.00 39 1015.0
20260906175329 30 163 14.5 30.6 0.00 0.00 0.00 41 1015.1
20260906174832 30 190 16.1 30.6 0.00 0.00 0.00 41 1015.2
20260906174354 29 188 12.9 29.0 0.00 0.00 0.00 42 1015.3
20260906173835 29 156 17.7 32.2 0.00 0.00 0.00 42 1015.5
20260906173320 29 190 17.7 32.2 0.00 0.00 0.00 42 1015.6
20260906172856 28 192 14.5 35.4 0.00 0.00 0.00 43 1015.6
20260906172318 28 158 19.3 32.2 0.00 0.00 0.00 45 1015.6
20260906171823 28 166 19.3 32.2 0.00 0.00 0.00 44 1015.8
20260906171324 28 141 16.1 33.8 0.00 0.00 0.00 45 1015.8
20260906170829 28 181 16.1 37.0 0.00 0.00 0.00 45 1015.9
20260906170333 28 163 25.7 37.0 0.00 0.00 0.00 46 1016.0
20260906165829 27 132 22.5 32.2 0.00 0.00 0.00 46 1016.2
20260906165318 27 168 20.9 32.2 0.00 0.00 0.00 46 1016.3
20260906164825 27 182 19.3 32.2 0.00 0.00 0.00 47 1016.3
20260906164329 27 200 17.7 30.6 0.00 0.00 0.00 47 1015.4
20260906163831 27 196 17.7 32.2 0.00 0.00 0.00 48 1015.5
20260906163333 27 208 19.3 33.8 0.00 0.00 0.00 48 1015.5
20260906162829 26 159 20.9 35.4 0.00 0.00 0.00 49 1015.5
20260906162351 26 146 24.1 35.4 0.00 0.00 0.00 48 1015.6
20260906161833 26 136 17.7 25.7 0.00 0.00 0.00 48 1015.7
20260906161357 26 139 17.7 35.4 0.00 0.00 0.00 48 1015.8
20260906160842 26 174 16.1 35.4 0.00 0.00 0.00 49 1015.9
20260906160344 26 123 19.3 37.0 0.00 0.00 0.00 50 1016.1
20260906155817 26 132 25.7 33.8 0.00 0.00 0.00 50 1016.1
20260906155323 25 176 19.3 35.4 0.00 0.00 0.00 51 1016.1
20260906154824 -17 196 20.9 35.4 0.00 0.00 0.00 1016.1
20260906154329 -17 195 22.5 38.6 0.00 0.00 0.00 1016.3
20260906153836 -17 196 20.9 38.6 0.00 0.00 0.00 1016.2
20260906153339 -17 161 22.5 35.4 0.00 0.00 0.00 1016.3
20260906152834 -17 130 22.5 33.8 0.00 0.00 0.00 1016.2
20260906152336 -17 141 20.9 38.6 0.00 0.00 0.00 1016.2
20260906151818 -17 149 22.5 38.6 0.00 0.00 0.00 1016.2
20260906151324 -17 191 22.5 35.4 0.00 0.00 0.00 1016.2
20260906150826 -17 184 20.9 41.8 0.00 0.00 0.00 1016.2
20260906150328 -17 176 30.6 41.8 0.00 0.00 0.00 1016.1
20260906145845 -17 192 24.1 43.5 0.00 0.00 0.00 1016.2
20260906145329 -17 154 20.9 46.7 0.00 0.00 0.00 1016.1
20260906144832 -17 178 30.6 46.7 0.00 0.00 0.00 1016.2
20260906144333 -17 189 19.3 32.2 0.00 0.00 0.00 1016.1
20260906143823 -17 170 17.7 37.0 0.00 0.00 0.00 1016.2
20260906143326 -17 174 19.3 38.6 0.00 0.00 0.00 1016.2
20260906142822 -17 176 19.3 30.6 0.00 0.00 0.00 1016.2
20260906142324 -17 187 17.7 35.4 0.00 0.00 0.00 1016.2
20260906141828 -17 157 22.5 35.4 0.00 0.00 0.00 1016.1
20260906141331 -17 150 24.1 33.8 0.00 0.00 0.00 1016.1
20260906140836 -17 165 12.9 20.9 0.00 0.00 0.00 1016.0
20260906140341 -17 142 12.9 20.9 0.00 0.00 0.00 1015.9
20260906135819 -17 144 12.9 20.9 0.00 0.00 0.00 1015.9
20260906135325 -17 146 14.5 20.9 0.00 0.00 0.00 1015.8
20260906134830 -17 186 12.9 17.7 0.00 0.00 0.00 1015.9
20260906134334 -17 172 11.3 20.9 0.00 0.00 0.00 1015.8
20260906133822 -17 192 11.3 20.9 0.00 0.00 0.00 1015.8
20260906133324 -17 188 12.9 17.7 0.00 0.00 0.00 1015.8
20260906132821 -17 191 9.7 14.5 0.00 0.00 0.00 1015.9
20260906132327 -17 175 8.0 14.5 0.00 0.00 0.00 1015.9
20260906131833 -17 175 9.7 14.5 0.00 0.00 0.00 1015.7
20260906131318 -17 168 6.4 12.9 0.00 0.00 0.00 1015.7
20260906130823 -17 184 8.0 14.5 0.00 0.00 0.00 1015.7
20260906130328 -17 164 11.3 12.9 0.00 0.00 0.00 1015.8
20260906125825 -17 167 9.7 12.9 0.00 0.00 0.00 1015.8
20260906125352 -17 186 9.7 12.9 0.00 0.00 0.00 1015.7
20260906124836 -17 184 9.7 12.9 0.00 0.00 0.00 1015.7
20260906124320 -17 186 9.7 12.9 0.00 0.00 0.00 1015.6
20260906123826 -17 179 8.0 16.1 0.00 0.00 0.00 1015.6
20260906123328 -17 180 9.7 16.1 0.00 0.00 0.00 1015.6
20260906122823 -17 174 11.3 12.9 0.00 0.00 0.00 1015.7
20260906122349 -17 183 11.3 12.9 0.00 0.00 0.00 1015.6
20260906121831 -17 180 9.7 12.9 0.00 0.00 0.00 1015.6
20260906121332 -17 169 6.4 12.9 0.00 0.00 0.00 1015.7
20260906120859 -17 191 8.0 14.5 0.00 0.00 0.00 1015.7
20260906120400 -17 167 8.0 16.1 0.00 0.00 0.00 1015.7
20260906115836 -17 140 9.7 17.7 0.00 0.00 0.00 1015.6
20260906115318 -17 188 9.7 19.3 0.00 0.00 0.00 1015.6
20260906114823 -17 191 9.7 19.3 0.00 0.00 0.00 1015.5
20260906114326 -17 198 12.9 16.1 0.00 0.00 0.00 1015.5
20260906113829 -17 188 11.3 16.1 0.00 0.00 0.00 1015.5
20260906113331 -17 185 11.3 16.1 0.00 0.00 0.00 1015.5
20260906112827 -17 167 11.3 17.7 0.00 0.00 0.00 1015.4
20260906112333 -17 183 12.9 17.7 0.00 0.00 0.00 1015.4
20260906111836 -17 146 14.5 17.7 0.00 0.00 0.00 1015.5
20260906111322 -17 132 12.9 19.3 0.00 0.00 0.00 1015.5
20260906110829 -17 165 14.5 19.3 0.00 0.00 0.00 1015.4
20260906110335 -17 195 12.9 16.1 0.00 0.00 0.00 1015.5
20260906105833 -17 182 12.9 16.1 0.00 0.00 0.00 1015.4
20260906105335 -17 198 11.3 16.1 0.00 0.00 0.00 1015.4
20260906104838 -17 179 11.3 14.5 0.00 0.00 0.00 1015.4
20260906104322 -17 170 11.3 14.5 0.00 0.00 0.00 1015.4
20260906103827 -17 176 9.7 14.5 0.00 0.00 0.00 1015.4
20260906103333 -17 179 9.7 14.5 0.00 0.00 0.00 1015.6
20260906102834 -17 157 9.7 14.5 0.00 0.00 0.00 1015.5
20260906102400 -17 159 9.7 14.5 0.00 0.00 0.00 1015.6
20260906101822 -17 150 4.8 17.7 0.00 0.00 0.00 1015.5
20260906101323 -17 132 9.7 17.7 0.00 0.00 0.00 1015.5
20260906100826 -17 146 8.0 14.5 0.00 0.00 0.00 1015.5
20260906100329 -17 164 8.0 14.5 0.00 0.00 0.00 1015.6
20260906095824 -17 171 9.7 17.7 0.00 0.00 0.00 1015.5
20260906095326 -17 168 8.0 17.7 0.00 0.00 0.00 1015.4
20260906094830 -17 184 11.3 20.9 0.00 0.00 0.00 1015.4
20260906094352 -17 191 12.9 20.9 0.00 0.00 0.00 1015.4
20260906093834 -17 175 11.3 16.1 0.00 0.00 0.00 1015.5
20260906093320 -17 166 9.7 12.9 0.00 0.00 0.00 1015.6
20260906092839 -17 130 6.4 12.9 0.00 0.00 0.00 1015.5
20260906092324 -17 144 8.0 14.5 0.00 0.00 0.00 1015.4
20260906091850 -17 149 8.0 14.5 0.00 0.00 0.00 1015.4
20260906091331 -17 152 6.4 11.3 0.00 0.00 0.00 1015.4
20260906090833 -17 144 8.0 11.3 0.00 0.00 0.00 1015.3
20260906090335 -17 150 8.0 9.7 0.00 0.00 0.00 1015.6
20260906085338 -17 157 3.2 8.0 0.00 0.00 0.00 1015.6
20260906084840 -17 158 3.2 8.0 0.00 0.00 0.00 1015.6
20260906084343 -17 159 3.2 8.0 0.00 0.00 0.00 1015.5
20260906083827 -17 163 4.8 6.4 0.00 0.00 0.00 1015.5
20260906083331 -17 163 3.2 9.7 0.00 0.00 0.00 1015.5
20260906082846 -17 161 6.4 9.7 0.00 0.00 0.00 1015.4
20260906082328 -17 184 8.0 11.3 0.00 0.00 0.00 1015.4
20260906081831 -17 157 6.4 11.3 0.00 0.00 0.00 1015.5
20260906081333 -17 157 8.0 11.3 0.00 0.00 0.00 1015.6
20260906080822 -17 145 9.7 11.3 0.00 0.00 0.00 1015.5
20260906080328 -17 139 6.4 9.7 0.00 0.00 0.00 1015.5
20260906075844 -17 119 3.2 8.0 0.00 0.00 0.00 1015.6
20260906075346 -17 65 3.2 8.0 0.00 0.00 0.00 1015.5
20260906074829 -17 148 3.2 9.7 0.00 0.00 0.00 1015.5
20260906074330 -17 150 1.6 11.3 0.00 0.00 0.00 1015.6
20260906073832 -17 144 6.4 11.3 0.00 0.00 0.00 1015.7
20260906073337 -17 146 8.0 11.3 0.00 0.00 0.00 1015.7
20260906072833 -17 156 3.2 11.3 0.00 0.00 0.00 1015.7
20260906072337 -17 155 6.4 11.3 0.00 0.00 0.00 1015.8
20260906071822 -17 155 8.0 9.7 0.00 0.00 0.00 1015.7
20260906071325 -17 157 4.8 11.3 0.00 0.00 0.00 1015.7
20260906070829 -17 180 6.4 11.3 0.00 0.00 0.00 1015.7
20260906070339 -17 144 8.0 11.3 0.00 0.00 0.00 1015.7
20260906065815 -17 154 8.0 11.3 0.00 0.00 0.00 1015.7
20260906065317 -17 192 4.8 12.9 0.00 0.00 0.00 1015.8
20260906064802 -17 193 8.0 14.5 0.00 0.00 0.00 1015.8
20260906064308 -17 182 9.7 17.7 0.00 0.00 0.00 1015.7
20260906063832 -17 170 12.9 20.9 0.00 0.00 0.00 1015.9
20260906063338 -17 196 14.5 20.9 0.00 0.00 0.00 1015.8
20260906062831 -17 209 16.1 20.9 0.00 0.00 0.00 1015.9
20260906062315 -17 186 12.9 17.7 0.00 0.00 0.00 1015.9
20260906061800 -17 202 8.0 14.5 0.00 0.00 0.00 1016.0
20260906061305 -17 186 9.7 14.5 0.00 0.00 0.00 1016.0
20260906060807 -17 190 9.7 14.5 0.00 0.00 0.00 1016.1
20260906060309 -17 202 8.0 14.5 0.00 0.00 0.00 1015.9
20260906055805 -17 190 3.2 9.7 0.00 0.00 0.00 1015.9
20260906055310 -17 227 6.4 9.7 0.00 0.00 0.00 1015.9
20260906054813 -17 28 0.0 0.0 0.00 0.00 0.00 1015.8
20260906054336 -17 30 0.0 0.0 0.00 0.00 0.00 1015.8
20260906053818 -17 28 0.0 0.0 0.00 0.00 0.00 1015.7
20260906053300 -17 19 0.0 0.0 0.00 0.00 0.00 1015.8
20260906052841 -17 18 0.0 0.0 0.00 0.00 0.00 1015.9
20260906052305 -17 17 0.0 0.0 0.00 0.00 0.00 1015.8
20260906051807 -17 18 0.0 0.0 0.00 0.00 0.00 1015.6
20260906051312 -17 18 0.0 0.0 0.00 0.00 0.00 1015.6
20260906050817 -17 360 0.0 3.2 0.00 0.00 0.00 1015.6
20260906050302 -17 360 0.0 6.4 0.00 0.00 0.00 1015.7
20260906045819 -17 360 3.2 6.4 0.00 0.00 0.00 1015.7
20260906045306 -17 360 1.6 6.4 0.00 0.00 0.00 1015.6
20260906044807 -17 360 3.2 8.0 0.00 0.00 0.00 1015.6
20260906044313 -17 360 4.8 8.0 0.00 0.00 0.00 1015.6
20260906043839 -17 360 1.6 9.7 0.00 0.00 0.00 1015.7
20260906043321 -17 13 4.8 9.7 0.00 0.00 0.00 1015.6
20260906042819 -17 13 6.4 9.7 0.00 0.00 0.00 1015.6
20260906042302 -17 360 6.4 9.7 0.00 0.00 0.00 1015.6
20260906041826 -17 360 3.2 8.0 0.00 0.00 0.00 1015.5
20260906041306 -17 360 1.6 9.7 0.00 0.00 0.00 1015.5
20260906040808 -17 360 6.4 9.7 0.00 0.00 0.00 1015.5
20260906040315 -17 360 8.0 11.3 0.00 0.00 0.00 1015.5
20260906035812 -17 360 6.4 11.3 0.00 0.00 0.00 1015.6
20260906035316 -17 355 8.0 9.7 0.00 0.00 0.00 1015.6
20260906034818 -17 16 6.4 8.0 0.00 0.00 0.00 1015.5
20260906034320 -17 17 4.8 9.7 0.00 0.00 0.00 1015.4
20260906033807 -17 19 4.8 9.7 0.00 0.00 0.00 1015.4
20260906033313 -17 47 1.6 3.2 0.00 0.00 0.00 1015.5
20260906032807 -17 113 0.0 3.2 0.00 0.00 0.00 1015.5
20260906032310 -17 111 0.0 4.8 0.00 0.00 0.00 1015.5
20260906031815 -17 111 3.2 6.4 0.00 0.00 0.00 1015.6
20260906031317 -17 111 1.6 6.4 0.00 0.00 0.00 1015.5
20260906030758 -17 87 1.6 8.0 0.00 0.00 0.00 1015.5
20260906030304 -17 87 4.8 8.0 0.00 0.00 0.00 1015.5
20260906025839 -17 87 0.0 8.0 0.00 0.00 0.00 1015.4
20260906025321 -17 87 1.6 8.0 0.00 0.00 0.00 1015.3
20260906024825 -17 65 1.6 8.0 0.00 0.00 0.00 1015.1
20260906024306 -17 38 1.6 16.1 0.00 0.00 0.00 1015.0
20260906023829 -17 26 3.2 16.1 0.00 0.00 0.00 1014.7
20260906023313 -17 26 3.2 11.3 0.00 0.00 0.00 1014.8
20260906022811 -17 33 4.8 11.3 0.00 0.00 0.00 1014.8
20260906022259 -17 19 6.4 9.7 0.00 0.00 0.00 1014.6
20260906021825 -17 17 4.8 9.7 0.00 0.00 0.00 1014.6
20260906021309 -17 15 3.2 9.7 0.00 0.00 0.00 1014.5
20260906020813 -17 27 1.6 9.7 0.00 0.00 0.00 1014.4
20260906020316 -17 21 4.8 9.7 0.00 0.00 0.00 1014.3
20260906015814 -17 43 3.2 11.3 0.00 0.00 0.00 1014.3
20260906015258 -17 39 6.4 14.5 0.00 0.00 0.00 1014.3
20260906014803 -17 9 8.0 14.5 0.00 0.00 0.00 1014.2
20260906014310 -17 34 4.8 16.1 0.00 0.00 0.00 1014.2
20260906013815 -17 24 8.0 14.5 0.00 0.00 0.00 1014.3
20260906013317 -17 9 6.4 12.9 0.00 0.00 0.00 1014.3
20260906012831 -17 5 6.4 16.1 0.00 0.00 0.00 1014.2
20260906012313 30 76 6.4 16.1 0.00 0.00 0.00 25 1014.3
20260906011801 30 43 4.8 14.5 0.00 0.00 0.00 25 1014.3
20260906011307 30 63 6.4 14.5 0.00 0.00 0.00 25 1014.3
20260906010811 30 55 9.7 16.1 0.00 0.00 0.00 24 1014.5
20260906010316 30 32 6.4 16.1 0.00 0.00 0.00 24 1014.3
20260906005831 31 70 4.8 16.1 0.00 0.00 0.00 24 1014.4
20260906005311 31 26 9.7 24.1 0.00 0.00 0.00 24 1014.2
20260906004815 31 5 11.3 24.1 0.00 0.00 0.00 23 1014.2
20260906004319 31 52 8.0 20.9 0.00 0.00 0.00 23 1014.2
20260906003822 31 5 8.0 17.7 0.00 0.00 0.00 23 1014.2
20260906003304 31 14 8.0 17.7 0.00 0.00 0.00 23 1014.2
20260906002820 31 38 9.7 17.7 0.00 0.00 0.00 23 1014.2
20260906002307 31 38 6.4 16.1 0.00 0.00 0.00 22 1014.3
20260906001808 32 28 6.4 12.9 0.00 0.00 0.00 22 1014.3
20260906001331 32 5 6.4 17.7 0.00 0.00 0.00 22 1014.3
20260906000820 32 59 8.0 19.3 0.00 0.00 0.00 22 1014.3
20260906000303 32 28 12.9 19.3 0.00 0.00 0.00 22 1014.2
20260905235818 32 5 12.9 17.7 0.00 0.00 0.00 21 1014.1
20260905235306 32 29 1.6 9.7 0.00 0.00 0.00 21 1014.1
20260905234809 32 42 1.6 11.3 0.00 0.00 0.00 21 1014.0
20260905234314 32 36 4.8 11.3 0.00 0.00 0.00 21 1014.0
20260905233817 33 60 3.2 9.7 0.00 0.00 0.00 21 1013.9
20260905233323 33 26 4.8 11.3 0.00 0.00 0.00 20 1014.0
20260905232820 33 346 8.0 11.3 0.00 0.00 0.00 21 1014.0
20260905232305 33 40 1.6 12.9 0.00 0.00 0.00 20 1014.0
20260905231828 33 325 6.4 12.9 0.00 0.00 0.00 20 1013.8
20260905231312 33 348 8.0 22.5 0.00 0.00 0.00 20 1013.8
20260905230815 33 306 9.7 22.5 0.00 0.00 0.00 20 1013.8
20260905230321 33 327 11.3 19.3 0.00 0.00 0.00 20 1013.8
20260905225816 33 5 6.4 19.3 0.00 0.00 0.00 20 1013.8
20260905225339 33 184 8.0 17.7 0.00 0.00 0.00 21 1013.9
20260905224820 33 267 9.7 17.7 0.00 0.00 0.00 21 1013.9
20260905224343 33 318 9.7 22.5 0.00 0.00 0.00 21 1013.8
20260905223823 33 289 6.4 22.5 0.00 0.00 0.00 20 1013.9
20260905223307 33 224 9.7 19.3 0.00 0.00 0.00 20 1013.9
20260905222806 33 287 11.3 19.3 0.00 0.00 0.00 19 1013.9
20260905222309 33 286 11.3 19.3 0.00 0.00 0.00 19 1013.9
20260905221812 33 244 11.3 29.0 0.00 0.00 0.00 19 1014.1
20260905221314 33 238 16.1 29.0 0.00 0.00 0.00 19 1014.1
20260905220800 33 232 19.3 29.0 0.00 0.00 0.00 19 1014.2
20260905220304 33 236 22.5 29.0 0.00 0.00 0.00 20 1014.2
20260905215819 33 215 12.9 20.9 0.00 0.00 0.00 20 1014.2
20260905215306 33 189 9.7 22.5 0.00 0.00 0.00 19 1014.2